Location: Cardiff
(53.7833°N, 113.6000°W)
Time: 22:05:51
(UTC+00:00)

Oscar 19 - Pass Details

Date: 03 December 2023
Orbit: 771 x 789 km, 98.9° (Epoch: 04 March)

Event Time Altitude Azimuth Distance (km) Brightness Sun altitude
Rises 13:03:39 0° 14° (NNE) 3,271 13.9 -20.6°
Reaches altitude 10° 13:06:00 10° 11° (N) 2,341 13.1 -20.3°
Maximum altitude 13:11:04 60° 293° (WNW) 891 10.6 -19.6°
Drops below altitude 10° 13:16:08 10° 214° (SSW) 2,337 12.9 -18.8°
Sets 13:18:28 0° 211° (SSW) 3,264 13.7 -18.5°
